パンスターズ彗星

P/2015 X6 ( PanSTARRS )

English version
Home page
Updated on November 13, 2016

---------------------------------------------------------------------

・ プロフィール

発見日 2015年12月7日
発見光度 21.4等
発見者 Pan-STARRS 1 telescope (Haleakala)

・ 軌道要素

Epoch 2016 Apr. 2.0 TT = JDT 2457480.5
T 2016 Mar. 18.66499 TT                                 MPCW
q   2.2873194            (2000.0)            P               Q
n   0.21562592     Peri.  329.02741     +0.23798068     -0.96829575
a   2.7542418      Node   107.11342     +0.90660035     +0.19339849
e   0.1695285      Incl.    4.55807     +0.34848385     +0.15811505
P   4.57
From 41 observations 2015 Nov. 12-2016 Feb. 1, mean residual 0".4.

・ 光度変化

        m1 = 16.0 + 5 logΔ + 10.0 log r

---------------------------------------------------------------------

軌道要素はM.P.E.C. 2016-Q04に掲載されたものです。
光度グラフはComet for Windowsで作成したものです。

---------------------------------------------------------------------

Copyright(C) Seiichi Yoshida (comet@aerith.net). All rights reserved.